Zurück zum Katalog

KUIPER-00570

AktivKommunikationLEO
NORAD 69271·PAYLOAD·🇺🇸 United States

Gestartet May 29, 2026 von Vandenberg Space Force Base

Loading…

Nächste Überflüge (nächste 24 Stunden)

TLE

AktuellSource: CelesTrak SupGP

Epoche: Sep 14, 2026, 21:03 UTC

1 69271C 26118E   26257.87753472  .00005774  00000+0  75597-3 0  2573
2 69271  51.9011   6.6548 0000456  96.2588 144.0115 14.79914550    18

Verfolge KUIPER-00570 in Echtzeit mit AllMySat

Download on the App Store